Weather History for KTTF - March, 2014

Change the Weather History Date:

Tuesday, March 4, 2014

  Actual Average Record
Temperature  
Mean Temperature 7 °F -  
Max Temperature 19 °F 40 °F 66 °F (1974)
Min Temperature -5 °F 25 °F -5 °F (2014)
Degree Days  
Heating Degree Days 58    
Moisture  
Dew Point -1 °F    
Average Humidity 61    
Maximum Humidity 85    
Minimum Humidity 39    
Precipitation  
Precipitation 0.00 in - - ()
Sea Level Pressure  
Sea Level Pressure 30.28 in    
Wind  
Wind Speed 0 mph (North)    
Max Wind Speed 0 mph    
Max Gust Speed -    
Visibility 10 miles    
Events      
Averages and records for this station are not official NWS values.
T = Trace of Precipitation, MM = Missing Value Source: NWS Daily Summary

Daily Weather History Graph

Daily Weather History Graph

Search for Another Location

Airport or City:

Trip Planner

Search our weather history database for the weather conditions in past years. The results will help you decide how hot, cold, wet, or windy it might be!

Date:

Astronomy

Mar. 04, 2014 Rise Set
Actual Time 7:03 AM EST 6:27 PM EST
Civil Twilight 6:36 AM EST 6:55 PM EST
Nautical Twilight 6:03 AM EST 7:27 PM EST
Astronomical Twilight 5:31 AM EST 8:00 PM EST
Moon 8:45 AM EST (3/4) 10:38 PM EST (3/4)
Length of Visible Light 12h 19m
Length of Day
11h 23m
Waxing Crescent, 14% of the Moon is Illuminated
Mar 4
Waxing Crescent
Mar 8
First Quarter
Mar 16
Full
Mar 23
Last Quarter
Mar 30
New

Hourly Weather History & Observations

Time (EST) Temp. Dew Point Humidity Pressure Visibility Wind Dir Wind Speed Gust Speed Precip Events Conditions
12:12 AM -5.8 °F -9.4 °F 84% 30.39 in 10.0 mi Calm Calm - N/A   Clear
12:32 AM -5.8 °F -9.4 °F 84% 30.38 in 10.0 mi Calm Calm - N/A   Clear
12:52 AM -4.0 °F -7.6 °F 85% 30.38 in 10.0 mi Calm Calm - N/A   Clear
1:12 AM -4.0 °F -7.6 °F 85% 30.38 in 10.0 mi Calm Calm - N/A   Clear
1:32 AM -4.0 °F -9.4 °F 78% 30.38 in 10.0 mi Calm Calm - N/A   Clear
1:52 AM -4.0 °F -9.4 °F 78% 30.38 in 10.0 mi Calm Calm - N/A   Clear
2:12 AM -2.2 °F -5.8 °F 85% 30.38 in 10.0 mi Calm Calm - N/A   Clear
2:32 AM -2.2 °F -7.6 °F 78% 30.38 in 10.0 mi Calm Calm - N/A   Clear
2:52 AM -2.2 °F -7.6 °F 78% 30.38 in 10.0 mi Calm Calm - N/A   Clear
3:12 AM -2.2 °F -5.8 °F 85% 30.37 in 10.0 mi Calm Calm - N/A   Clear
3:33 AM -2.2 °F -5.8 °F 85% 30.35 in 10.0 mi Calm Calm - N/A   Clear
3:53 AM 3.2 °F -2.2 °F 78% 30.35 in 10.0 mi Calm Calm - N/A   Clear
4:13 AM 3.2 °F -2.2 °F 78% 30.33 in 10.0 mi Calm Calm - N/A   Scattered Clouds
4:33 AM 3.2 °F -2.2 °F 78% 30.33 in 10.0 mi Calm Calm - N/A   Scattered Clouds
4:53 AM 3.2 °F -2.2 °F 78% 30.34 in 10.0 mi Calm Calm - N/A   Mostly Cloudy
5:13 AM 5.0 °F -0.4 °F 78% 30.35 in 10.0 mi Calm Calm - N/A   Overcast
5:33 AM 5.0 °F -2.2 °F 72% 30.34 in 10.0 mi Calm Calm - N/A   Mostly Cloudy
5:53 AM 5.0 °F -2.2 °F 72% 30.35 in 10.0 mi Calm Calm - N/A   Mostly Cloudy
6:13 AM 5.0 °F -0.4 °F 78% 30.35 in 10.0 mi Calm Calm - N/A   Mostly Cloudy
6:33 AM 5.0 °F -0.4 °F 78% 30.34 in 10.0 mi Calm Calm - N/A   Mostly Cloudy
6:54 AM 5.0 °F -0.4 °F 78% 30.35 in 10.0 mi Calm Calm - N/A   Scattered Clouds
7:14 AM 3.2 °F -2.2 °F 78% 30.35 in 10.0 mi Calm Calm - N/A   Scattered Clouds
7:34 AM 3.2 °F -2.2 °F 78% 30.34 in 10.0 mi Calm Calm - N/A   Scattered Clouds
7:54 AM 5.0 °F -0.4 °F 78% 30.34 in 10.0 mi Calm Calm - N/A   Mostly Cloudy
8:14 AM 6.8 °F -0.4 °F 72% - 10.0 mi Calm Calm - N/A   Mostly Cloudy
8:34 AM 6.8 °F -0.4 °F 72% 30.31 in 10.0 mi Calm Calm - N/A   Mostly Cloudy
8:54 AM 8.6 °F -0.4 °F 67% 30.31 in 10.0 mi Calm Calm - N/A   Scattered Clouds
9:14 AM 10.4 °F -0.4 °F 62% 30.32 in 10.0 mi Calm Calm - N/A   Scattered Clouds
9:34 AM 10.4 °F -0.4 °F 62% 30.33 in 10.0 mi Calm Calm - N/A   Scattered Clouds
9:55 AM 10.4 °F -0.4 °F 62% 30.33 in 10.0 mi Calm Calm - N/A   Scattered Clouds
10:15 AM 10.4 °F -0.4 °F 62% 30.32 in 10.0 mi Calm Calm - N/A   Clear
10:35 AM 10.4 °F -0.4 °F 62% 30.31 in 10.0 mi Calm Calm - N/A   Scattered Clouds
10:55 AM 12.2 °F -0.4 °F 57% 30.30 in 10.0 mi Calm Calm - N/A   Scattered Clouds
11:15 AM 12.2 °F -0.4 °F 57% 30.29 in 10.0 mi Calm Calm - N/A   Scattered Clouds
11:35 AM 12.2 °F -0.4 °F 57% 30.28 in 10.0 mi Calm Calm - N/A   Scattered Clouds
11:55 AM 14.0 °F -2.2 °F 49% 30.28 in 10.0 mi Calm Calm - N/A   Mostly Cloudy
12:15 PM 15.8 °F -2.2 °F 45% 30.27 in 10.0 mi Calm Calm - N/A   Overcast
12:35 PM 15.8 °F -2.2 °F 45% 30.27 in 10.0 mi Calm Calm - N/A   Overcast
12:56 PM 15.8 °F -0.4 °F 49% 30.26 in 10.0 mi Calm Calm - N/A   Mostly Cloudy
1:16 PM 15.8 °F -0.4 °F 49% 30.24 in 10.0 mi Calm Calm - N/A   Scattered Clouds
1:36 PM 15.8 °F -0.4 °F 49% 30.23 in 10.0 mi Calm Calm - N/A   Scattered Clouds
1:56 PM 17.6 °F -2.2 °F 42% 30.23 in 10.0 mi Calm Calm - N/A   Mostly Cloudy
2:16 PM 17.6 °F -0.4 °F 45% 30.22 in 10.0 mi Calm Calm - N/A   Overcast
2:36 PM 17.6 °F -0.4 °F 45% 30.22 in 10.0 mi Calm Calm - N/A   Mostly Cloudy
2:56 PM 19.4 °F -0.4 °F 42% 30.21 in 10.0 mi Calm Calm - N/A   Overcast
3:16 PM 19.4 °F -0.4 °F 42% 30.20 in 10.0 mi Calm Calm - N/A   Mostly Cloudy
3:36 PM 19.4 °F -0.4 °F 42% 30.19 in 10.0 mi Calm Calm - N/A   Mostly Cloudy
3:57 PM 19.4 °F -0.4 °F 42% 30.19 in 10.0 mi Calm Calm - N/A   Overcast
4:12 PM 19.4 °F -2.2 °F 39% 30.19 in 10.0 mi Calm Calm - N/A   Overcast
4:32 PM 19.4 °F -0.4 °F 42% 30.20 in 10.0 mi Calm Calm - N/A   Overcast
4:52 PM 19.4 °F -2.2 °F 39% 30.20 in 10.0 mi Calm Calm - N/A   Overcast
5:12 PM 19.4 °F -0.4 °F 42% 30.19 in 10.0 mi Calm Calm - N/A   Overcast
5:32 PM 19.4 °F -0.4 °F 42% 30.20 in 10.0 mi Calm Calm - N/A   Overcast
5:52 PM 19.4 °F 1.4 °F 46% 30.20 in 10.0 mi Calm Calm - N/A   Overcast
6:12 PM 19.4 °F 3.2 °F 49% 30.20 in 10.0 mi Calm Calm - N/A   Overcast
6:32 PM 19.4 °F 1.4 °F 46% 30.21 in 10.0 mi Calm Calm - N/A   Overcast
6:52 PM 17.6 °F 3.2 °F 53% 30.21 in 10.0 mi Calm Calm - N/A   Overcast
7:12 PM 17.6 °F 3.2 °F 53% 30.21 in 10.0 mi Calm Calm - N/A   Overcast
7:32 PM 17.6 °F 1.4 °F 49% 30.21 in 10.0 mi Calm Calm - N/A   Overcast
7:53 PM 17.6 °F 3.2 °F 53% 30.21 in 10.0 mi Calm Calm - N/A   Overcast
8:13 PM 17.6 °F 3.2 °F 53% 30.22 in 10.0 mi Calm Calm - N/A   Overcast
8:33 PM 17.6 °F 3.2 °F 53% 30.22 in 10.0 mi Calm Calm - N/A   Overcast
8:53 PM 17.6 °F 3.2 °F 53% 30.23 in 10.0 mi Calm Calm - N/A   Overcast
9:13 PM 17.6 °F 3.2 °F 53% 30.23 in 10.0 mi Calm Calm - N/A   Overcast
9:33 PM 17.6 °F 3.2 °F 53% 30.22 in 10.0 mi Calm Calm - N/A   Overcast
9:53 PM 17.6 °F 3.2 °F 53% 30.22 in 10.0 mi Calm Calm - N/A   Overcast
10:13 PM 17.6 °F 3.2 °F 53% 30.22 in 10.0 mi Calm Calm - N/A   Overcast
10:33 PM 17.6 °F 3.2 °F 53% 30.22 in 10.0 mi Calm Calm - N/A   Overcast
10:54 PM 17.6 °F 5.0 °F 58% 30.23 in 10.0 mi Calm Calm - N/A   Overcast
11:14 PM 17.6 °F 6.8 °F 63% 30.23 in 10.0 mi Calm Calm - N/A   Overcast
11:34 PM 17.6 °F 6.8 °F 63% 30.23 in 10.0 mi Calm Calm - N/A   Overcast
11:54 PM 17.6 °F 6.8 °F 63% 30.22 in 10.0 mi Calm Calm - N/A   Overcast